Location: Killam
(52.7910°N, 111.8608°W)
Time: 14:49:29
(UTC+00:00)

Injun/Solrad 3 - Pass Details

Date: 24 February 2026
Orbit: 872 x 984 km, 66.8° (Epoch: 7 March)

Event Time Altitude Azimuth Distance (km) Brightness Sun altitude
Rises 02:01:46 0° 319° (NW) 3,570 11.6 -10.7°
Reaches altitude 10° 02:04:17 10° 316° (NW) 2,640 10.9 -11.1°
Maximum altitude 02:10:20 62° 238° (WSW) 1,060 8.5 -12.0°
Drops below altitude 10° 02:16:32 10° 159° (SSE) 2,699 10.1 -13.0°
Sets 02:19:08 0° 156° (SSE) 3,654 10.7 -13.4°
